Location: Colonia Mina de C?rbuni
(46.1667°N, 22.7167°E)
Time: 11:38:07
(UTC+00:00)

USA 81 - Visible Passes

Search period start: 28 September 2023 00:00
Search period end: 08 October 2023 00:00
Orbit: 783 x 788 km, 85.0° (Epoch: 26 September)

Date Brightness Start Highest point End Pass type
(mag) Time Alt. Az. Time Alt. Az. Time Alt. Az.
28 Sep 6.4 03:46:57 10° NNE 03:51:35 30° ENE 03:56:10 10° SE visible
28 Sep 4.3 16:47:44 10° SSE 16:52:43 46° E 16:57:43 10° NNE visible
28 Sep 6.3 18:29:44 10° SW 18:34:00 25° WNW 18:38:19 10° NNW visible
29 Sep 7.0 03:16:27 10° NNE 03:20:10 19° ENE 03:23:51 10° ESE visible
29 Sep 5.5 17:57:44 10° SSW 18:02:38 39° WNW 18:07:36 10° N visible
30 Sep 7.4 02:46:47 10° NE 02:48:37 12° ENE 02:50:26 10° E visible
30 Sep 4.5 17:26:11 10° SSW 17:31:23 65° W 17:36:39 10° N visible
01 Oct 5.2 03:54:15 10° N 03:59:23 49° E 04:04:29 10° SSE visible
01 Oct 4.0 16:55:00 10° S 17:00:14 78° E 17:05:32 10° N visible
01 Oct 7.0 18:38:58 10° WSW 18:41:59 15° WNW 18:45:00 10° NNW visible
02 Oct 6.2 03:23:24 10° NNE 03:28:04 31° ENE 03:32:42 10° SE visible
02 Oct 6.4 18:06:17 10° SW 18:10:30 24° WNW 18:14:45 10° NNW visible
03 Oct 6.9 02:52:53 10° NNE 02:56:39 19° ENE 03:00:24 10° ESE visible
03 Oct 5.6 17:34:14 10° SW 17:39:07 38° WNW 17:44:03 10° N visible
04 Oct 7.4 02:23:06 10° NE 02:25:06 12° ENE 02:27:06 10° E visible
04 Oct 4.2 04:01:45 10° N 04:07:04 84° E 04:12:21 10° S visible
04 Oct 4.6 17:02:40 10° SSW 17:07:52 63° W 17:13:07 10° N visible
05 Oct 5.1 03:30:42 10° N 03:35:52 51° E 03:40:59 10° SSE visible
05 Oct 4.0 16:31:27 10° S 16:36:42 80° E 16:42:00 10° N visible
05 Oct 7.1 18:15:34 10° W 18:18:28 15° WNW 18:21:24 10° NNW visible
06 Oct 6.0 02:59:51 10° NNE 03:04:33 31° ENE 03:09:14 10° SE visible
06 Oct 6.5 17:42:48 10° SW 17:46:59 24° WNW 17:51:12 10° NNW visible
07 Oct 6.8 02:29:18 10° NNE 02:33:08 20° ENE 02:36:58 10° ESE visible
07 Oct 5.7 17:10:45 10° SW 17:15:36 37° WNW 17:20:31 10° N visible
